Ulladulla Observation History
Time Wind Speed Temp Pressure Rel. Hum Rain
05/09:30pm W 3-5 kts 9.5°c 1027.2 hPa 80% 0.0mm
05/09:00pm W 2-3 kts 9.6°c 1027.0 hPa 79% 0.0mm
05/08:30pm W 3-4 kts 9.9°c 1027.0 hPa 79% 0.0mm
05/08:00pm W 4 kts 10.0°c 1027.2 hPa 79% 0.0mm
05/07:30pm W 3 kts 10.1°c 1027.1 hPa 78% 0.0mm
05/07:00pm W 4 kts 10.2°c 1027.0 hPa 77% 0.0mm
05/06:30pm W 3 kts 10.6°c 1026.8 hPa 75% 0.0mm
05/06:00pm WSW 3 kts 10.7°c 1026.5 hPa 73% 0.0mm
05/05:30pm WSW 3 kts 11.3°c 1026.1 hPa 70% 0.0mm
05/05:00pm SSW 2-3 kts 12.2°c 1025.9 hPa 69% 0.0mm
05/04:30pm S 3-4 kts 13.3°c 1025.8 hPa 67% 0.0mm
05/04:00pm SSE 2-4 kts 13.9°c 1025.7 hPa 64% 0.0mm
05/03:30pm SSE 3-4 kts 14.2°c 1025.7 hPa 61% 0.0mm
05/03:00pm SE 2-5 kts 14.6°c 1025.7 hPa 60% 0.0mm
05/02:30pm ESE 3-5 kts 14.8°c 1025.7 hPa 58% 0.0mm
05/02:00pm SE 4-6 kts 14.8°c 1025.9 hPa 55% 0.0mm
05/01:30pm E 2-5 kts 15.6°c 1026.3 hPa 53% 0.0mm
05/01:00pm E 3-5 kts 15.3°c 1026.7 hPa 52% 0.0mm
05/12:30pm ENE 3-5 kts 14.9°c 1027.2 hPa 54% 0.0mm
05/12:00pm NE 3-6 kts 14.8°c 1027.6 hPa 56% 0.0mm
05/11:30am NE 3-5 kts 14.7°c 1028.3 hPa 60% 0.0mm
05/11:00am NE 2-5 kts 14.4°c 1029.0 hPa 60% 0.0mm
05/10:30am NE 2-4 kts 13.9°c 1029.5 hPa 61% 0.0mm
05/10:00am SSW 1-2 kts 12.9°c 1029.8 hPa 64% 0.0mm
05/09:30am SSW 3-5 kts 12.2°c 1029.8 hPa 65% 0.0mm
05/09:00am SW 1-3 kts 12.4°c 1029.7 hPa 65% 0.4mm
05/08:30am CALM 0 kts 11.7°c 1029.5 hPa 72% 0.4mm
05/08:00am CALM 0 kts 10.2°c 1029.4 hPa 78% 0.4mm
05/07:30am CALM 0 kts 9.0°c 1029.3 hPa 78% 0.4mm
05/07:00am CALM 0-1 kts 8.1°c 1029.2 hPa 74% 0.4mm
05/06:30am CALM 0 kts 8.1°c 1029.2 hPa 71% 0.4mm
05/06:00am CALM 0 kts 8.1°c 1029.1 hPa 68% 0.4mm
05/05:30am NW 2-3 kts 8.4°c 1029.1 hPa 66% 0.4mm
05/05:00am NW 2-3 kts 9.1°c 1029.1 hPa 66% 0.4mm
05/04:30am NW 3-4 kts 8.8°c 1029.2 hPa 65% 0.4mm
05/04:00am NW 3-5 kts 9.3°c 1029.2 hPa 63% 0.4mm
05/03:30am NW 3-4 kts 9.7°c 1029.3 hPa 64% 0.4mm
05/03:00am NW 3-4 kts 9.5°c 1029.5 hPa 68% 0.4mm
05/02:30am NW 4-5 kts 9.5°c 1029.8 hPa 71% 0.4mm
05/02:00am WNW 3-4 kts 9.4°c 1030.2 hPa 70% 0.4mm
05/01:30am WNW 3-4 kts 9.0°c 1030.3 hPa 70% 0.4mm
05/01:00am W 3-5 kts 9.1°c 1030.4 hPa 69% 0.4mm
05/12:30am W 3-4 kts 9.2°c 1030.7 hPa 70% 0.4mm
05/12:00am W 3-5 kts 9.2°c 1030.9 hPa 69% 0.4mm
Time Wind Speed Temp Pressure Rel. Hum Rain
04/11:30pm W 3-4 kts 9.3°c 1031.2 hPa 69% 0.4mm
04/11:00pm W 3-5 kts 9.4°c 1031.5 hPa 68% 0.0mm
04/10:30pm W 3-5 kts 9.3°c 1031.7 hPa 68% 0.0mm
04/10:00pm W 4-5 kts 9.1°c 1031.7 hPa 68% 0.0mm
04/09:30pm W 5-6 kts 9.1°c 1031.8 hPa 68% 0.0mm
04/09:00pm W 4-5 kts 9.4°c 1031.9 hPa 68% 0.0mm
04/08:30pm W 4-5 kts 9.3°c 1031.9 hPa 67% 0.0mm
04/08:00pm W 4-6 kts 9.4°c 1032.1 hPa 66% 0.0mm
04/07:30pm WSW 4-5 kts 9.4°c 1032.0 hPa 64% 0.0mm
04/07:00pm W 3-4 kts 10.2°c 1031.9 hPa 61% 0.0mm
04/06:30pm W 2-4 kts 11.4°c 1031.6 hPa 57% 0.0mm
04/06:00pm S 6-9 kts 13.0°c 1031.3 hPa 56% 0.0mm
04/05:30pm S 7-10 kts 13.1°c 1031.2 hPa 54% 0.0mm
04/05:00pm S 7-11 kts 13.1°c 1031.3 hPa 54% 0.0mm
04/04:30pm S 7-11 kts 13.2°c 1031.2 hPa 55% 0.0mm
04/04:00pm S 8-11 kts 13.4°c 1031.1 hPa 54% 0.0mm
04/03:30pm S 7-10 kts 13.7°c 1031.0 hPa 53% 0.0mm
04/03:00pm S 9-13 kts 13.9°c 1031.1 hPa 53% 0.0mm
04/02:30pm S 11-14 kts 14.0°c 1031.2 hPa 51% 0.0mm
04/02:00pm S 11-14 kts 14.1°c 1031.2 hPa 53% 0.0mm
04/01:30pm S 13-16 kts 14.2°c 1031.4 hPa 48% 0.0mm
04/01:00pm S 12-17 kts 14.2°c 1031.8 hPa 48% 0.0mm
04/12:30pm SSW 8-12 kts 14.6°c 1032.0 hPa 45% 0.0mm
04/12:00pm SSW 9-13 kts 14.4°c 1032.3 hPa 46% 0.0mm
04/11:30am SSW 8-13 kts 14.2°c 1032.6 hPa 46% 0.0mm
04/11:00am SSW 10-14 kts 13.9°c 1033.0 hPa 46% 0.0mm
04/10:30am SSW 10-17 kts 13.7°c 1033.3 hPa 47% 0.0mm
04/10:00am SW 9-15 kts 13.5°c 1033.5 hPa 46% 0.0mm
04/09:30am SW 9-13 kts 12.3°c 1033.4 hPa 46% 0.0mm
04/09:00am SW 8-15 kts 12.3°c 1033.2 hPa 46% 0.0mm
04/08:30am SW 7-11 kts 11.1°c 1033.0 hPa 49% n/a
04/08:00am SW 7-11 kts 10.8°c 1032.7 hPa 49% n/a
04/07:30am SW 8-12 kts 10.8°c 1032.4 hPa 49% n/a
04/07:00am WSW 7-11 kts 10.1°c 1032.3 hPa 51% n/a
04/06:30am SW 6-9 kts 10.1°c 1032.0 hPa 51% n/a
04/06:00am WSW 7-11 kts 10.0°c 1031.8 hPa 51% n/a
04/05:30am WSW 7-11 kts 9.9°c 1031.5 hPa 54% n/a
04/05:00am WSW 5-8 kts 9.2°c 1031.2 hPa 55% n/a
04/04:30am SW 7-12 kts 10.2°c 1031.1 hPa 51% n/a
04/04:00am SW 8-14 kts 10.6°c 1030.8 hPa 49% n/a
04/03:30am SW 8-13 kts 11.1°c 1030.7 hPa 49% n/a
04/03:00am SW 7-10 kts 10.8°c 1030.9 hPa 52% 0.0mm
04/02:30am SW 6-10 kts 10.1°c 1030.8 hPa 55% n/a
04/02:00am SW 6-10 kts 10.3°c 1030.8 hPa 55% n/a
04/01:30am SW 7-11 kts 10.5°c 1030.6 hPa 55% n/a
04/01:00am SW 8-14 kts 10.7°c 1030.5 hPa 56% n/a
04/12:30am SW 9-15 kts 10.8°c 1030.6 hPa 56% n/a
04/12:00am SW 11-18 kts 11.3°c 1030.6 hPa 55% n/a
Time Wind Speed Temp Pressure Rel. Hum Rain
03/11:30pm SW 9-15 kts 11.2°c 1030.6 hPa 56% n/a
03/11:00pm SW 9-14 kts 11.5°c 1030.5 hPa 57% n/a
03/10:30pm S 15-24 kts 13.3°c 1030.2 hPa 56% n/a
03/10:13pm S 16-26 kts 13.3°c 1030.2 hPa 54% n/a
03/10:00pm S 19-27 kts 13.4°c 1030.0 hPa 54% n/a
03/09:30pm S 18-28 kts 13.6°c 1029.8 hPa 57% n/a
03/09:02pm S 20-30 kts 13.9°c 1029.5 hPa 55% n/a
03/09:00pm S 19-28 kts 13.9°c 1029.5 hPa 55% 0.0mm
03/08:30pm S 28-34 kts 14.1°c 1029.1 hPa 48% n/a
03/08:00pm S 26-34 kts 14.3°c 1028.9 hPa 51% n/a
03/07:30pm S 24-33 kts 14.4°c 1028.3 hPa 53% n/a
03/07:10pm S 23-34 kts 14.3°c 1027.9 hPa 56% n/a
03/07:00pm S 25-33 kts 14.3°c 1027.8 hPa 57% n/a
03/06:30pm S 23-32 kts 14.3°c 1027.4 hPa 57% n/a
03/06:00pm S 22-29 kts 14.3°c 1027.0 hPa 53% n/a
03/05:30pm S 21-27 kts 14.6°c 1026.3 hPa 58% n/a
03/05:00pm S 20-28 kts 14.3°c 1026.1 hPa 61% n/a
03/04:30pm S 18-26 kts 14.2°c 1025.8 hPa 63% n/a
03/04:00pm S 19-25 kts 15.2°c 1025.3 hPa 48% n/a
03/03:30pm S 17-22 kts 15.1°c 1024.9 hPa 47% n/a
03/03:00pm S 16-23 kts 15.4°c 1024.3 hPa 49% n/a
03/02:30pm S 16-20 kts 15.5°c 1023.9 hPa 46% n/a
03/02:00pm S 14-19 kts 15.5°c 1023.7 hPa 48% n/a
03/01:30pm S 11-15 kts 15.9°c 1023.4 hPa 41% n/a
03/01:00pm S 12-17 kts 15.8°c 1023.2 hPa 44% n/a
03/12:30pm S 12-18 kts 16.2°c 1023.3 hPa 39% n/a
03/12:00pm SSW 10-15 kts 16.0°c 1023.1 hPa 37% n/a
03/11:30am SSW 11-17 kts 15.8°c 1023.2 hPa 37% n/a
03/11:00am SSW 13-18 kts 15.6°c 1023.0 hPa 37% 0.0mm
03/10:30am SSW 11-18 kts 15.5°c 1022.9 hPa 37% 0.0mm
03/10:00am SW 7-14 kts 15.4°c 1022.9 hPa 43% 0.0mm
03/09:30am SW 8-11 kts 14.6°c 1022.2 hPa 47% 0.0mm
03/09:00am WSW 8-16 kts 14.3°c 1021.9 hPa 46% 0.0mm
03/08:30am WSW 7-11 kts 13.8°c 1021.4 hPa 49% 0.0mm
03/08:00am WSW 7-11 kts 12.8°c 1020.7 hPa 52% 0.0mm
03/07:30am W 6-11 kts 12.6°c 1019.9 hPa 52% 0.0mm
03/07:00am WSW 4-8 kts 11.0°c 1019.0 hPa 56% 0.0mm
03/06:30am WSW 6-11 kts 10.6°c 1018.3 hPa 58% 0.0mm
03/06:00am WSW 3-5 kts 10.0°c 1018.0 hPa 57% 0.0mm
03/05:30am WNW 3-7 kts 10.9°c 1017.2 hPa 55% 0.0mm
03/05:00am WNW 4-6 kts 10.9°c 1016.7 hPa 54% 0.0mm
03/04:30am WNW 6-9 kts 11.4°c 1016.2 hPa 53% 0.0mm
03/04:00am NW 9-15 kts 11.8°c 1015.9 hPa 52% 0.0mm
03/03:30am WNW 7-15 kts 12.2°c 1016.6 hPa 50% 0.0mm
03/03:00am WNW 6-12 kts 11.8°c 1016.6 hPa 52% 0.0mm
03/02:30am NW 7-11 kts 11.5°c 1016.4 hPa 53% 0.0mm
03/02:00am WNW 7-11 kts 11.5°c 1016.1 hPa 53% 0.0mm
03/01:30am WNW 7-13 kts 11.5°c 1016.1 hPa 52% 0.0mm
03/01:00am WNW 7-13 kts 11.4°c 1015.9 hPa 52% 0.0mm
03/12:30am WNW 8-13 kts 11.5°c 1016.0 hPa 51% 0.0mm
03/12:00am WNW 8-12 kts 11.6°c 1016.2 hPa 51% 0.0mm